| time (UTC) | temp F | wind direction | speed MPH | gust MPH | rain 1hr in | rain 24hr in | rain mn in | humidity % | barometer mb |
| 20260504204529 | 77 | 163 | 5.0 | 12.0 | 0.00 | 0.00 | 0.00 | 48 | 1015.6 |
| 20260504203023 | 79 | 233 | 8.0 | 15.0 | 0.00 | 0.00 | 0.00 | 46 | 1015.8 |
| 20260504201513 | 78 | 239 | 7.0 | 15.0 | 0.00 | 0.00 | 0.00 | 48 | 1016.1 |
| 20260504200010 | 80 | 131 | 3.0 | 10.0 | 0.00 | 0.00 | 0.00 | 47 | 1016.4 |
| 20260504194509 | 79 | 139 | 5.0 | 15.0 | 0.00 | 0.00 | 0.00 | 44 | 1016.6 |
| 20260504193006 | 78 | 360 | 4.0 | 13.0 | 0.00 | 0.00 | 0.00 | 49 | 1016.7 |
| 20260504191506 | 79 | 213 | 4.0 | 14.0 | 0.00 | 0.00 | 0.00 | 49 | 1016.9 |
| 20260504190105 | 78 | 155 | 7.0 | 13.0 | 0.00 | 0.00 | 0.00 | 49 | 1017.1 |
| 20260504184502 | 79 | 182 | 6.0 | 10.0 | 0.00 | 0.00 | 0.00 | 48 | 1017.3 |
| 20260504183104 | 78 | 138 | 5.0 | 10.0 | 0.00 | 0.00 | 0.00 | 51 | 1017.5 |
| 20260504181557 | 78 | 19 | 1.0 | 5.0 | 0.00 | 0.00 | 0.00 | 61 | 1017.6 |
| 20260504180108 | 76 | 149 | 3.0 | 7.0 | 0.00 | 0.00 | 0.00 | 56 | 1017.7 |
| 20260504174552 | 75 | 63 | 4.0 | 8.0 | 0.00 | 0.00 | 0.00 | 63 | 1017.8 |
| 20260504173105 | 76 | 349 | 4.0 | 8.0 | 0.00 | 0.00 | 0.00 | 65 | 1017.8 |
| 20260504171554 | 74 | 17 | 2.0 | 6.0 | 0.00 | 0.00 | 0.00 | 66 | 1017.7 |
| 20260504081557 | 60 | 173 | 1.0 | 2.0 | 0.00 | 0.00 | 0.00 | 81 | 1017.7 |
| 20260504050025 | 65 | 182 | 2.0 | 5.0 | 0.00 | 0.00 | 0.00 | 71 | 1019.5 |
| 20260504044525 | 66 | 165 | 1.0 | 4.0 | 0.00 | 0.00 | 0.00 | 70 | 1019.6 |
| 20260504043023 | 66 | 173 | 1.0 | 5.0 | 0.00 | 0.00 | 0.00 | 70 | 1019.8 |
| 20260504041537 | 66 | 258 | 3.0 | 7.0 | 0.00 | 0.00 | 0.00 | 69 | 1019.8 |
| 20260504040024 | 66 | 165 | 2.0 | 7.0 | 0.00 | 0.00 | 0.00 | 68 | 1019.7 |
| 20260504034523 | 66 | 234 | 3.0 | 8.0 | 0.00 | 0.00 | 0.00 | 67 | 1019.7 |
| 20260504033022 | 67 | 150 | 2.0 | 5.0 | 0.00 | 0.00 | 0.00 | 67 | 1019.6 |
| 20260504031522 | 67 | 149 | 1.0 | 4.0 | 0.00 | 0.00 | 0.00 | 64 | 1019.6 |
| 20260504030022 | 68 | 218 | 1.0 | 3.0 | 0.00 | 0.00 | 0.00 | 62 | 1019.7 |
| 20260504024522 | 68 | 169 | 0.0 | 2.0 | 0.00 | 0.00 | 0.00 | 62 | 1019.5 |
| 20260504023020 | 69 | 168 | 0.0 | 2.0 | 0.00 | 0.00 | 0.00 | 61 | 1019.3 |
| 20260504021519 | 69 | 180 | 0.0 | 2.0 | 0.00 | 0.00 | 0.00 | 60 | 1019.3 |
| 20260504020031 | 70 | 159 | 0.0 | 2.0 | 0.00 | 0.00 | 0.00 | 59 | 1019.0 |
| 20260504014522 | 70 | 207 | 1.0 | 3.0 | 0.00 | 0.00 | 0.00 | 57 | 1018.9 |
| 20260504013018 | 71 | 213 | 0.0 | 1.0 | 0.00 | 0.00 | 0.00 | 58 | 1018.7 |
| 20260504011517 | 72 | 217 | 0.0 | 1.0 | 0.00 | 0.00 | 0.00 | 54 | 1018.7 |
| 20260504010017 | 72 | 213 | 1.0 | 2.0 | 0.00 | 0.00 | 0.00 | 54 | 1018.6 |
| 20260504004517 | 73 | 266 | 0.0 | 2.0 | 0.00 | 0.00 | 0.00 | 53 | 1018.5 |
| 20260504003015 | 74 | 294 | 1.0 | 2.0 | 0.00 | 0.00 | 0.00 | 51 | 1018.4 |
| 20260504001523 | 74 | 360 | 0.0 | 4.0 | 0.00 | 0.00 | 0.00 | 49 | 1018.5 |
| 20260504000015 | 75 | 360 | 1.0 | 7.0 | 0.00 | 0.00 | 0.00 | 48 | 1018.3 |
| 20260503234515 | 76 | 306 | 2.0 | 6.0 | 0.00 | 0.00 | 0.00 | 47 | 1018.4 |
| 20260503233018 | 76 | 333 | 2.0 | 6.0 | 0.00 | 0.00 | 0.00 | 46 | 1018.6 |
| 20260503231511 | 77 | 292 | 3.0 | 8.0 | 0.00 | 0.00 | 0.00 | 44 | 1018.7 |
| 20260503230031 | 78 | 301 | 3.0 | 8.0 | 0.00 | 0.00 | 0.00 | 44 | 1018.7 |
| 20260503224509 | 78 | 244 | 4.0 | 8.0 | 0.00 | 0.00 | 0.00 | 43 | 1018.8 |
| 20260503223008 | 78 | 298 | 3.0 | 8.0 | 0.00 | 0.00 | 0.00 | 43 | 1018.9 |
| 20260503221508 | 79 | 272 | 4.0 | 8.0 | 0.00 | 0.00 | 0.00 | 43 | 1019.0 |
| 20260503220006 | 79 | 19 | 2.0 | 8.0 | 0.00 | 0.00 | 0.00 | 42 | 1019.1 |
| 20260503214510 | 78 | 298 | 3.0 | 7.0 | 0.00 | 0.00 | 0.00 | 44 | 1019.3 |
| 20260503213103 | 78 | 325 | 3.0 | 8.0 | 0.00 | 0.00 | 0.00 | 44 | 1019.5 |
| 20260503211600 | 78 | 26 | 3.0 | 6.0 | 0.00 | 0.00 | 0.00 | 41 | 1019.7 |
| 20260503210058 | 78 | 17 | 2.0 | 6.0 | 0.00 | 0.00 | 0.00 | 44 | 1020.0 |
| 20260503204620 | 79 | 268 | 2.0 | 8.0 | 0.00 | 0.00 | 0.00 | 43 | 1020.2 |